User: anonymous   Login
Location: Unspecified
(0.0000°N, 0.0000°E)
Time: 12:21:10
(UTC+00:00)
Language:

Milstar 3 - Orbit

View from above orbital plane
View from above orbital plane
View from above satellite
View from above satellite

Ground track
Ground track

The orbit data is extracted from the following two-line orbital elements,

1 25724U 99023A   20045.06822935 0.00000000  00000-0  00000-0 0    02
2 25724  28.2370 121.2328 2127578 164.3731 195.6264  9.37456733    00
Epoch (UTC): 14 February 2020 01:38:15
Eccentricity: 0.2127578
inclination: 28.2370°
perigee height: 1101 km
apogee height: 5144 km
right ascension of ascending node: 121.2328°
argument of perigee: 164.3731°
revolutions per day: 9.37456733
mean anomaly at epoch: 195.6264°
orbit number at epoch: 0

The dashed part of the orbit path shows where the satellite is in the earth's shadow,  

DLR